[[{"header":{"parameterUnit":"m.s-1","parameterCategory":1,"la1":30.2992,"la2":30.254,"lo1":-89.0895,"lo2":-89.0443,"dy":0.0025,"dx":0.0025,"nx":19,"ny":19,"refTime":"2026-04-09T03:00:00:Z","depth":0,"parameterNumber":2,"parameterNumberName":"U-component_of_WINDS"},"data":[0,0,0,-6.5229,-6.5231,-6.5269,-6.5269,-6.5366,-6.5367,0,0,0,0,0,0,0,0,0,0,0,-6.5246,-6.5248,-6.5229,-6.5231,-6.5269,-6.5269,-6.5366,-6.5367,0,0,0,0,0,0,0,0,0,0,0,-6.5245,-6.5247,-6.5249,-6.5231,-6.5269,-6.5269,-6.5365,-6.532,0,0,0,0,0,0,0,0,0,0,-6.5274,-6.5316,-6.5247,-6.5249,-6.5232,-6.5269,-6.5269,-6.5317,-6.5323,-6.5369,0,-6.5416,0,-6.5394,-6.5377,-6.5377,0,0,0,-6.521,-6.5312,-6.5297,-6.5249,-6.5232,-6.5269,-6.5246,-6.5319,-6.5326,-6.5377,-6.5417,-6.5419,-6.5395,-6.5377,-6.5378,-6.5713,-6.5716,0,0,-6.5208,-6.5268,-6.5293,-6.5303,-6.5299,-6.5245,-6.5248,-6.5323,-6.5371,-6.5417,-6.5421,-6.5397,-6.5378,-6.5379,-6.5711,-6.5714,0,0,0,-6.5216,-6.5267,-6.5249,-6.53,-6.5303,-6.5247,-6.525,-6.5367,-6.5357,-6.5422,-6.5398,-6.5379,-6.5381,-6.5708,-6.5712,-6.5894,0,0,0,-6.5214,-6.5272,-6.525,-6.5287,-6.5303,-6.5336,-6.5294,-6.5352,-6.5358,-6.5398,-6.5379,-6.5382,-6.5705,-6.571,-6.5883,-6.597,0,0,0,-6.5234,-6.5273,-6.5289,-6.529,-6.5308,-6.5333,-6.5326,-6.5351,-6.5345,-6.5377,-6.5383,-6.5703,-6.5709,-6.5873,-6.5954,-6.6076,0,0,0,-6.5272,-6.545,-6.5293,-6.5482,-6.5308,-6.5446,-6.5325,-6.5424,-6.5474,-6.538,-6.5705,-6.5711,-6.587,-6.5943,-6.6066,-6.6188,-6.6245,0,0,-6.5529,-6.5483,-6.559,-6.545,-6.5631,-6.5436,-6.5644,-6.5632,-6.5581,-6.5673,-6.568,-6.5887,-6.5952,-6.6074,-6.6547,-6.6592,0,0,0,-6.5691,-6.5769,-6.5804,-6.5854,-6.5851,-6.5856,-6.5807,-6.5803,-6.5878,-6.564,-6.5963,-6.6,-6.6069,-6.6124,-6.6163,-6.6218,-6.574,-6.5739,-6.5739,-6.6139,-6.6065,-6.6237,-6.6169,-6.622,-6.617,-6.6204,-6.6191,-6.61,-6.6179,-6.6204,-6.65,-6.6568,-6.6597,-6.6656,-6.6264,-6.6265,-6.6266,-6.6266,-6.6507,-6.6605,-6.6484,-6.6607,-6.653,-6.6633,-6.6593,-6.6527,-6.6612,-6.6474,-6.6531,-6.6385,-6.6649,-6.6697,-6.6279,-6.6277,-6.6275,-6.6274,-6.6273,-6.679,-6.6824,-6.6818,-6.6885,-6.6946,-6.6872,-6.696,-6.6886,-6.6817,-6.6873,-6.6893,-6.689,-6.6877,-6.6889,-6.689,-6.6891,-6.6891,-6.6892,-6.6893,-6.7086,-6.7073,-6.7156,-6.7171,-6.7194,-6.7217,-6.7172,-6.7193,-6.7199,-6.7138,-6.7137,-6.7041,-6.669,-6.6602,-6.6908,-6.6906,-6.6904,-6.6902,-6.6901,-6.7483,-6.7382,-6.7511,-6.7536,-6.7548,-6.7614,-6.752,-6.7572,-6.758,-6.7626,-6.7519,-6.7272,-6.7218,-6.7187,-6.7114,-6.7534,-6.7534,-6.7534,-6.7534,-6.7721,-6.7688,-6.7804,-6.7848,-6.7884,-6.7813,-6.7963,-6.7932,-6.7882,-6.7883,-6.7812,-6.771,-6.7682,-6.7645,-6.7604,-6.7534,-6.8052,-6.8052,-6.8053,-6.7961,-6.7929,-6.8069,-6.8021,-6.8026,-6.8033,-6.8172,-6.823,-6.8153,-6.8072,-6.7882,-6.7861,-6.7694,-6.7644,-6.7556,-6.7494,-6.7365,0,0]},{"header":{"parameterUnit":"m.s-1","parameterCategory":1,"la1":30.2992,"la2":30.254,"lo1":-89.0895,"lo2":-89.0443,"dy":0.0025,"dx":0.0025,"nx":19,"ny":19,"refTime":"2026-04-09T03:00:00:Z","depth":0,"parameterNumber":3,"parameterNumberName":"V-component_of_WINDS"},"data":[0,0,0,1.683,1.683,1.6847,1.6847,1.684,1.684,0,0,0,0,0,0,0,0,0,0,0,1.681,1.6809,1.683,1.683,1.6847,1.6847,1.684,1.684,0,0,0,0,0,0,0,0,0,0,0,1.681,1.6809,1.6808,1.683,1.6847,1.6847,1.684,1.6837,0,0,0,0,0,0,0,0,0,0,1.6825,1.6792,1.6809,1.6808,1.683,1.6847,1.6847,1.6837,1.6837,1.6821,0,1.6804,0,1.6822,1.6837,1.6837,0,0,0,1.6841,1.6792,1.6811,1.6808,1.683,1.6847,1.6842,1.6837,1.6837,1.682,1.6804,1.6804,1.6822,1.6837,1.6837,1.6712,1.6711,0,0,1.684,1.6803,1.6811,1.681,1.6808,1.6842,1.6843,1.6838,1.6816,1.6804,1.6805,1.6821,1.6837,1.6837,1.6713,1.6712,0,0,0,1.683,1.6802,1.6822,1.6809,1.6815,1.6842,1.6843,1.6817,1.6826,1.6805,1.6821,1.6837,1.6836,1.6714,1.6713,1.6623,0,0,0,1.683,1.6797,1.6821,1.6799,1.6814,1.6816,1.6821,1.6827,1.6827,1.6821,1.6837,1.6836,1.6716,1.6713,1.6628,1.6585,0,0,0,1.6814,1.6795,1.6793,1.6797,1.6803,1.6817,1.6827,1.6828,1.6837,1.6837,1.6836,1.6716,1.6714,1.6633,1.6593,1.6541,0,0,0,1.6785,1.6711,1.679,1.6715,1.6803,1.6764,1.6828,1.68,1.6789,1.6837,1.6715,1.6713,1.6634,1.6598,1.6546,1.6489,1.6463,0,0,1.6671,1.6696,1.6655,1.6726,1.6664,1.6764,1.6688,1.6712,1.6744,1.672,1.6718,1.6627,1.6594,1.6542,1.6333,1.6312,0,0,0,1.6607,1.6576,1.6568,1.6558,1.6577,1.6588,1.6629,1.6638,1.6621,1.6725,1.6597,1.6578,1.6549,1.6523,1.6505,1.6482,1.67,1.6701,1.6701,1.639,1.6439,1.6373,1.6424,1.6413,1.6458,1.6453,1.6473,1.6522,1.6491,1.6483,1.6351,1.632,1.6306,1.6281,1.646,1.6459,1.6459,1.6459,1.6226,1.619,1.6262,1.6223,1.6274,1.6242,1.6282,1.6319,1.6295,1.636,1.6337,1.6402,1.6282,1.6262,1.6453,1.6454,1.6455,1.6455,1.6456,1.6087,1.6078,1.6094,1.6086,1.6075,1.6129,1.6104,1.6151,1.6195,1.6173,1.6169,1.617,1.6176,1.6169,1.6168,1.6168,1.6167,1.6167,1.6167,1.5936,1.5956,1.593,1.5947,1.5948,1.5955,1.6001,1.6002,1.6015,1.6052,1.6052,1.6103,1.6263,1.63,1.616,1.6161,1.6162,1.6163,1.6163,1.5746,1.5797,1.5756,1.5758,1.5781,1.5766,1.583,1.5829,1.5838,1.5823,1.5882,1.5993,1.602,1.6035,1.6066,1.5873,1.5873,1.5873,1.5873,1.5626,1.5647,1.5617,1.5615,1.562,1.5674,1.5625,1.566,1.5705,1.5713,1.5749,1.5795,1.5808,1.5828,1.5847,1.5876,1.564,1.5639,1.5639,1.5511,1.5535,1.5484,1.5531,1.5554,1.5572,1.5527,1.5521,1.5582,1.5631,1.5719,1.5729,1.5805,1.5828,1.5873,1.5901,1.5956,0,0]}]]